Location: Moscow
(55.7500°N, 37.5830°E)
Time: 22:28:37
(UTC+03:00)

COSMOS 2251 DEB - Pass Details

Date: 11 July 2022
Orbit: 738 x 847 km, 74.1° (Epoch: 17 August)

Event Time Altitude Azimuth Distance (km) Brightness Sun altitude
Rises 22:47:11 0° 314° (NW) 3,259 ? -8.9°
Reaches altitude 10° 22:52:22 10° 358° (N) 2,300 ? -9.2°
Maximum altitude 22:53:01 10° 5° (N) 2,282 ? -9.2°
Drops below altitude 10° 22:53:40 10° 12° (NNE) 2,293 ? -9.3°
Sets 22:58:44 0° 56° (NE) 3,194 ? -9.6°
